[[{"header":{"parameterUnit":"m.s-1","parameterCategory":1,"la1":30.2991,"la2":30.254,"lo1":-89.0895,"lo2":-89.0444,"dy":0.0017,"dx":0.0017,"nx":28,"ny":28,"refTime":"2023-10-23T09:00:00:Z","depth":0,"parameterNumber":2,"parameterNumberName":"U-component_of_WINDS"},"data":[0,0,0,0,0,0,0,0,0,0,0,0,0,0,0,0,0,0,0,0,0,0,0,0,0,0,0,0,0,0,0,0,0,0,0,0,0,0,0,0,0,0,0,0,0,0,0,0,0,0,0,0,0,0,0,0,0,0,-5.6776,-5.6777,0,-5.6872,-5.6873,-5.6874,-5.6788,-5.6785,-5.6781,-5.6778,-5.6875,-5.688,-5.6886,0,0,0,0,0,0,0,0,0,0,0,0,0,-5.6521,-5.6526,-5.6776,-5.6777,-5.6779,-5.6872,-5.6873,-5.6874,-5.6789,-5.6785,-5.678,-5.6777,-5.6873,-5.688,-5.6887,0,0,0,0,0,0,0,0,0,0,0,0,0,-5.6626,-5.6528,-5.6776,-5.6747,-5.6746,-5.6871,-5.6873,-5.6875,-5.679,-5.6785,-5.6779,-5.6775,-5.6871,-5.6879,-5.6888,-5.7046,0,0,-5.6914,-5.6918,0,0,0,0,0,0,0,0,-5.662,-5.6635,-5.675,-5.6749,-5.6748,-5.6813,-5.6818,-5.6932,-5.6791,-5.6773,-5.6778,-5.6772,-5.6858,-5.6868,-5.6897,-5.7051,-5.7055,-5.6915,-5.692,-5.6924,-5.6927,0,0,0,0,0,0,0,-5.6613,-5.6631,-5.6814,-5.6752,-5.6751,-5.673,-5.6739,-5.684,-5.6844,-5.6774,-5.6768,-5.6781,-5.6857,-5.6889,-5.6899,-5.7056,-5.6915,-5.6923,-5.6928,-5.6931,-5.7348,-5.7353,0,0,0,0,0,0,-5.6609,-5.6625,-5.6811,-5.6817,-5.667,-5.6739,-5.6749,-5.6797,-5.6842,-5.6844,-5.6785,-5.6776,-5.6877,-5.6889,-5.6902,-5.709,-5.6924,-5.6932,-5.6937,-5.7342,-5.7349,-5.7355,0,0,0,0,0,0,-5.6604,-5.6626,-5.6807,-5.672,-5.6741,-5.6749,-5.6804,-5.6802,-5.6834,-5.6851,-5.6851,-5.6817,-5.6873,-5.689,-5.7012,-5.7092,-5.6936,-5.6944,-5.7335,-5.7344,-5.7352,-5.7469,0,0,0,0,0,0,-5.6597,-5.6625,-5.6684,-5.6722,-5.6746,-5.6915,-5.6809,-5.6808,-5.6849,-5.6839,-5.6881,-5.6883,-5.687,-5.6999,-5.702,-5.7102,-5.6951,-5.7328,-5.7339,-5.7349,-5.7458,-5.7481,-5.75,0,0,0,0,0,-5.6588,-5.6712,-5.6687,-5.671,-5.6821,-5.6919,-5.6933,-5.6916,-5.6856,-5.6916,-5.6928,-5.6881,-5.7082,-5.7012,-5.7035,-5.7121,-5.7322,-5.7336,-5.7348,-5.7448,-5.7476,-5.75,0,0,0,0,0,0,-5.6682,-5.6716,-5.6689,-5.683,-5.6873,-5.6905,-5.6979,-5.6946,-5.7006,-5.6994,-5.6971,-5.6981,-5.711,-5.7128,-5.705,-5.7278,-5.7192,-5.7211,-5.726,-5.7287,-5.7308,-5.7298,-5.6958,0,0,0,0,0,-5.672,-5.6797,-5.6823,-5.6945,-5.6968,-5.6971,-5.7013,-5.6997,-5.704,-5.7057,-5.7078,-5.7122,-5.7194,-5.7242,-5.731,-5.7462,-5.747,-5.7533,-5.7554,-5.7571,-5.7586,-5.7669,-5.7697,-5.7398,-5.7398,-5.7398,0,0,-5.6797,-5.6826,-5.6875,-5.6965,-5.6996,-5.7077,-5.6986,-5.7075,-5.7135,-5.7071,-5.7186,-5.7205,-5.7252,-5.739,-5.7452,-5.7409,-5.7672,-5.7588,-5.7602,-5.7607,-5.7685,-5.7713,-5.7739,-5.7407,-5.7405,-5.7404,0,0,-5.6978,-5.7009,-5.7113,-5.7148,-5.7197,-5.7199,-5.7225,-5.7264,-5.7273,-5.739,-5.7344,-5.7417,-5.7542,-5.7578,-5.7613,-5.7816,-5.7775,-5.7839,-5.7947,-5.8028,-5.8052,-5.8073,-5.8144,-5.8169,-5.7855,-5.7855,-5.7855,0,-5.7067,-5.7187,-5.7171,-5.7264,-5.7305,-5.7255,-5.7361,-5.7395,-5.7464,-5.7494,-5.7446,-5.7605,-5.7633,-5.7779,-5.783,-5.786,-5.7889,-5.7831,-5.805,-5.8071,-5.809,-5.8157,-5.8184,-5.7862,-5.7861,-5.7861,-5.786,0,-5.7294,-5.7379,-5.7458,-5.7527,-5.7578,-5.7677,-5.7677,-5.7731,-5.7713,-5.7721,-5.7842,-5.7876,-5.795,-5.7985,-5.7967,-5.813,-5.8102,-5.8053,-5.7965,-5.8126,-5.8188,-5.8214,-5.7873,-5.787,-5.7868,-5.7866,0,0,-5.7531,-5.7595,-5.7623,-5.7655,-5.7709,-5.7774,-5.7874,-5.7948,-5.7994,-5.8046,-5.8127,-5.8238,-5.8195,-5.8235,-5.8222,-5.8294,-5.8452,-5.8236,-5.8237,-5.8273,-5.8633,-5.8666,-5.8696,-5.8428,-5.8433,-5.8436,-5.8628,0,-5.7713,-5.7883,-5.7875,-5.8035,-5.8113,-5.807,-5.8156,-5.8199,-5.8211,-5.828,-5.8293,-5.8371,-5.8308,-5.8332,-5.8402,-5.8417,-5.8523,-5.8404,-5.8502,-5.8506,-5.8487,-5.8729,-5.8764,-5.8943,-5.8653,-5.8657,-5.866,0,-5.7945,-5.8006,-5.8175,-5.822,-5.8253,-5.833,-5.8399,-5.8466,-5.8516,-5.852,-5.8568,-5.8544,-5.8646,-5.8561,-5.87,-5.862,-5.8661,-5.8675,-5.8682,-5.8687,-5.8589,-5.8738,-5.9,-5.9026,-5.8699,-5.8696,-5.8693,0,-5.8098,-5.8224,-5.8341,-5.837,-5.8426,-5.8482,-5.8508,-5.8553,-5.8599,-5.8661,-5.869,-5.8763,-5.8802,-5.886,-5.8857,-5.8796,-5.8999,-5.8913,-5.9004,-5.9005,-5.9044,-5.9041,-5.9313,-5.9078,-5.9078,-5.9077,-5.9076,0,-5.83,-5.8404,-5.8411,-5.8482,-5.8599,-5.859,-5.8706,-5.8727,-5.8768,-5.8843,-5.8812,-5.8884,-5.8878,-5.8952,-5.8952,-5.9067,-5.9086,-5.9092,-5.9089,-5.9092,-5.9091,-5.9115,-5.9101,-5.9084,-5.9083,-5.9081,-5.908,0,-5.8487,-5.8496,-5.8621,-5.8666,-5.868,-5.8764,-5.8803,-5.8872,-5.8883,-5.898,-5.9002,-5.902,-5.9105,-5.9111,-5.9209,-5.9209,-5.9349,-5.9335,-5.9332,-5.9328,-5.9418,-5.9408,-5.9711,-5.975,-5.9493,-5.9495,-5.9497,0,-5.8613,-5.8692,-5.8747,-5.8796,-5.8826,-5.8905,-5.8953,-5.895,-5.9001,-5.9067,-5.9128,-5.9211,-5.9276,-5.9415,-5.9437,-5.9513,-5.9498,-5.96,-5.9509,-5.951,-5.9497,-5.9491,-5.9499,-5.9616,-5.9618,-5.9621,-5.9623,0,-5.8834,-5.8836,-5.8906,-5.8981,-5.9039,-5.9097,-5.9151,-5.9193,-5.9196,-5.9257,-5.9344,-5.9395,-5.9497,-5.958,-5.9655,-5.9682,-5.9654,-5.9653,-5.9677,-5.9678,-5.9672,-5.9675,-5.9376,-5.9644,-5.9642,-5.964,-5.9639,-5.9638,-5.8992,-5.9062,-5.9112,-5.9193,-5.9234,-5.9286,-5.9354,-5.9376,-5.9449,-5.9531,-5.9526,-5.9623,-5.9675,-5.9773,-5.9807,-5.9884,-5.9849,-5.9885,-5.9894,-5.9902,-5.991,-5.9664,-5.9898,-5.9897,-5.9897,-5.9896,-5.9896,0,-5.921,-5.9241,-5.9316,-5.9394,-5.9458,-5.9429,-5.9489,-5.9544,-5.963,-5.9681,-5.9747,-5.9849,-5.9931,-5.9962,-6.0042,-6.0097,-6.0086,-6.0118,-6.0112,-6.0119,-5.9937,-5.9907,-6.0126,-6.0126,-6.0126,-6.0126,-6.0126,-6.0126,-5.933,-5.9446,-5.9455,-5.9592,-5.9623,-5.9718,-5.9755,-5.9804,-5.9845,-5.996,-6.0028,-6.0049,-6.0093,-6.0176,-6.0251,-6.0258,-6.0287,-6.0325,-6.0326,-6.0155,-6.0131,-6.0109,-6.008,-6.0332,-6.0332,-6.0501,-6.0502,-6.0503]},{"header":{"parameterUnit":"m.s-1","parameterCategory":1,"la1":30.2991,"la2":30.254,"lo1":-89.0895,"lo2":-89.0444,"dy":0.0017,"dx":0.0017,"nx":28,"ny":28,"refTime":"2023-10-23T09:00:00:Z","depth":0,"parameterNumber":3,"parameterNumberName":"V-component_of_WINDS"},"data":[0,0,0,0,0,0,0,0,0,0,0,0,0,0,0,0,0,0,0,0,0,0,0,0,0,0,0,0,0,0,0,0,0,0,0,0,0,0,0,0,0,0,0,0,0,0,0,0,0,0,0,0,0,0,0,0,0,0,3.4217,3.4215,0,3.4111,3.4109,3.4108,3.3984,3.3982,3.3981,3.3979,3.3865,3.3864,3.3863,0,0,0,0,0,0,0,0,0,0,0,0,0,3.4312,3.431,3.4217,3.4215,3.4214,3.4111,3.4109,3.4108,3.3985,3.3982,3.398,3.3978,3.3866,3.3864,3.3862,0,0,0,0,0,0,0,0,0,0,0,0,0,3.4244,3.431,3.4217,3.414,3.4132,3.4111,3.4109,3.4107,3.3985,3.3982,3.3979,3.3977,3.3866,3.3864,3.3862,3.3906,0,0,3.3856,3.3856,0,0,0,0,0,0,0,0,3.4248,3.4241,3.4153,3.4146,3.4137,3.4058,3.4101,3.404,3.3986,3.4041,3.3979,3.3975,3.3931,3.3924,3.391,3.3901,3.3896,3.3856,3.3855,3.3854,3.3854,0,0,0,0,0,0,0,3.4253,3.4245,3.4174,3.4152,3.4142,3.4111,3.4098,3.4089,3.4003,3.4036,3.4027,3.4016,3.3926,3.3912,3.3906,3.3894,3.3856,3.3855,3.3853,3.3853,3.3919,3.3922,0,0,0,0,0,0,3.427,3.425,3.4178,3.4171,3.4187,3.4111,3.4097,3.4086,3.4003,3.3987,3.4019,3.4011,3.3917,3.3909,3.3902,3.3948,3.3854,3.3852,3.3851,3.3916,3.392,3.3923,0,0,0,0,0,0,3.4272,3.4265,3.4182,3.4208,3.4195,3.4113,3.4101,3.4085,3.4071,3.399,3.3973,3.402,3.3914,3.3904,3.3907,3.3942,3.3851,3.385,3.3913,3.3917,3.3921,3.4042,0,0,0,0,0,0,3.4276,3.4266,3.4282,3.4209,3.4194,3.419,3.4103,3.4085,3.4068,3.4057,3.3986,3.3972,3.3911,3.3911,3.3905,3.3938,3.3848,3.3909,3.3915,3.392,3.4034,3.405,3.4063,0,0,0,0,0,3.4279,3.4318,3.4283,3.4275,3.4212,3.4192,3.4183,3.4114,3.4072,3.4087,3.4036,3.3974,3.3941,3.3912,3.3905,3.3938,3.3906,3.3913,3.392,3.4027,3.4047,3.4063,0,0,0,0,0,0,3.4394,3.4307,3.4267,3.4284,3.4247,3.4171,3.4187,3.4136,3.4108,3.4098,3.4012,3.3997,3.4011,3.3975,3.3944,3.3978,3.3915,3.392,3.3999,3.4017,3.4031,3.4038,3.3847,0,0,0,0,0,3.4422,3.4413,3.4338,3.436,3.4344,3.427,3.4258,3.4209,3.4166,3.4148,3.4097,3.4057,3.4037,3.4025,3.4003,3.403,3.4013,3.405,3.4064,3.4077,3.4081,3.4094,3.411,3.3945,3.3945,3.3944,0,0,3.4477,3.4429,3.4428,3.4382,3.4347,3.434,3.4257,3.4252,3.4245,3.4147,3.4146,3.4109,3.4058,3.4074,3.4078,3.4044,3.4124,3.4085,3.4096,3.4093,3.4103,3.4118,3.4132,3.3949,3.3948,3.3948,0,0,3.4575,3.4539,3.4553,3.4522,3.4472,3.4423,3.4428,3.4361,3.4333,3.4332,3.4259,3.4251,3.4218,3.4186,3.4165,3.4259,3.4201,3.4254,3.4328,3.4342,3.4355,3.4366,3.4398,3.4411,3.426,3.426,3.426,0,3.465,3.4637,3.4567,3.4568,3.455,3.4465,3.448,3.4452,3.4397,3.4386,3.4351,3.4311,3.4271,3.4279,3.4303,3.4289,3.4291,3.4259,3.4359,3.4369,3.4378,3.4409,3.4421,3.4267,3.4266,3.4265,3.4265,0,3.4732,3.4725,3.4743,3.4694,3.4679,3.4687,3.4619,3.4612,3.4566,3.4522,3.4523,3.4474,3.4441,3.444,3.4393,3.4442,3.4423,3.4375,3.4309,3.4402,3.4429,3.444,3.4276,3.4274,3.4272,3.427,0,0,3.4892,3.481,3.4817,3.4795,3.4737,3.4729,3.4736,3.4706,3.4701,3.4668,3.467,3.4649,3.4605,3.4582,3.4532,3.4545,3.4623,3.4495,3.4493,3.4519,3.4674,3.4709,3.4723,3.4587,3.4589,3.459,3.4678,0,3.4977,3.4982,3.4922,3.4943,3.4936,3.4859,3.4864,3.4829,3.479,3.4778,3.4734,3.4719,3.4663,3.4649,3.4659,3.4611,3.4652,3.4605,3.4586,3.4587,3.4598,3.4737,3.4772,3.4857,3.4688,3.4689,3.4691,0,3.5075,3.5051,3.5072,3.5016,3.5011,3.5016,3.4986,3.4977,3.4936,3.4907,3.4886,3.483,3.4832,3.4775,3.4776,3.4746,3.4736,3.4712,3.4714,3.4706,3.4642,3.4731,3.4882,3.4894,3.4707,3.4705,3.4704,0,3.5188,3.5161,3.517,3.5155,3.509,3.5096,3.5069,3.5027,3.5014,3.4989,3.498,3.4954,3.494,3.4922,3.4862,3.4825,3.4871,3.4807,3.4845,3.4847,3.4854,3.4854,3.5003,3.4854,3.4853,3.4853,3.4853,0,3.5287,3.5303,3.5221,3.5226,3.5243,3.5176,3.5193,3.5159,3.5123,3.5121,3.5053,3.5053,3.4975,3.4966,3.492,3.4929,3.4923,3.4899,3.4885,3.4903,3.4906,3.4892,3.4883,3.4856,3.4856,3.4855,3.4855,0,3.5414,3.536,3.5365,3.5306,3.5292,3.5306,3.5255,3.5258,3.5218,3.5216,3.5212,3.5147,3.5133,3.5074,3.5045,3.5014,3.5038,3.5014,3.5051,3.5042,3.5083,3.508,3.5226,3.5242,3.5086,3.5087,3.5088,0,3.5479,3.549,3.5434,3.5428,3.5406,3.5398,3.5386,3.5322,3.5312,3.5271,3.5279,3.5261,3.5242,3.5225,3.5175,3.5154,3.5127,3.518,3.5123,3.5141,3.5126,3.5125,3.5126,3.5191,3.5193,3.5195,3.5196,0,3.56,3.5574,3.556,3.5539,3.5527,3.5506,3.5481,3.5481,3.541,3.5403,3.539,3.5377,3.535,3.5333,3.5305,3.5276,3.5225,3.5216,3.5223,3.5239,3.526,3.5248,3.5082,3.5211,3.521,3.5209,3.5208,3.5207,3.5696,3.5703,3.5666,3.5653,3.5629,3.5609,3.561,3.5571,3.556,3.5534,3.5498,3.549,3.5454,3.5411,3.5388,3.5381,3.5351,3.5362,3.5364,3.5367,3.5376,3.5265,3.5375,3.5375,3.5374,3.5374,3.5374,0,3.5812,3.5786,3.5776,3.5745,3.5736,3.5693,3.5665,3.566,3.5654,3.5626,3.5611,3.5597,3.5582,3.5534,3.5513,3.5517,3.5493,3.5514,3.5511,3.5506,3.5404,3.5399,3.5534,3.5534,3.5534,3.5534,3.5534,3.5534,3.5871,3.5881,3.5852,3.585,3.5823,3.5817,3.5804,3.5786,3.5763,3.5752,3.5739,3.571,3.5673,3.5651,3.5636,3.5622,3.5617,3.5645,3.5623,3.5528,3.5512,3.5498,3.5492,3.5645,3.5645,3.5725,3.5726,3.5727]}]]